Home   Weather   Pirna   Past weeks

Flag for Germany Past Weather in Pirna, Saxony, Germany — Yesterday and Last 2 Weeks

48 °F

Passing clouds.

Feels Like: 44 °F
Forecast: 46 / 53 °F
Wind: 9 mph from Southwest

Location: Dresden-Klotzsche

Current Time: Oct 28, 2016 at 4:42:26 AM

Latest Report: Oct 28, 2016 at 4:20 AM

Visibility: N/A

Pressure: 30.42 "Hg

Humidity: 87%

Dew Point: 45 °F

Location of PirnaLocation

Past Weather in Pirna — Graph


Pirna Temperature Yesterday

Maximum temperature yesterday: 50 °F (at 2:50 PM)
Minimum temperature yesterday: 41 °F (at 5:50 AM)
Average temperature yesterday: 47 °F

High & Low Weather Summary for the Past Weeks

High63 °F (Oct 16, 2:50 PM)100% (Oct 14, 6:20 AM)30.48 "Hg (Oct 14, 6:20 AM)
Low36 °F (Oct 23, 5:20 AM)64% (Oct 16, 2:50 PM)29.80 "Hg (Oct 15, 1:20 AM)
Average47 °F90%30.08 "Hg
* Reported Oct 13 3:20 AM — Oct 28 3:20 AM, Pirna, Weather by CustomWeather, © 2016

Note: Actual official high and low records may vary slightly from our data, if they occured in-between our weather recording intervals... More about our weather records


Pirna Weather History for the Previous 24 Hours

Scroll right to see more
Time TempWeatherWind HumidityBarometerVisibility
3:20 AM
Fri, Oct 28
50 °FPassing clouds.8 mph82%30.48 "HgN/A
2:50 AM50 °FPassing clouds.6 mph82%30.48 "HgN/A
2:20 AM50 °FClear.8 mph82%30.48 "Hg10 mi
1:50 AM48 °FClear.8 mph87%30.45 "Hg10 mi
1:20 AM48 °FClear.7 mph94%30.48 "Hg6 mi
12:50 AM48 °FClear.6 mph94%30.48 "Hg6 mi
12:20 AM48 °FClear.5 mph94%30.48 "Hg6 mi
11:50 PM
Thu, Oct 27
50 °FPassing clouds.6 mph94%30.48 "Hg6 mi
11:20 PM50 °FPassing clouds.5 mph94%30.48 "Hg6 mi
10:50 PM50 °FPassing clouds.5 mph94%30.48 "Hg6 mi
10:20 PM50 °FPassing clouds.7 mph94%30.48 "Hg5 mi
9:50 PM50 °FPassing clouds.5 mph94%30.48 "Hg5 mi
9:20 PM50 °FPassing clouds.3 mph94%30.48 "Hg5 mi
8:50 PM50 °FPassing clouds.3 mph94%30.48 "Hg4 mi
8:20 PM50 °FPartly cloudy.3 mph94%30.48 "Hg4 mi
7:50 PM50 °FPassing clouds.6 mph94%30.48 "Hg4 mi
7:20 PM50 °FPassing clouds.6 mph94%30.48 "Hg4 mi
6:50 PM50 °FFog.5 mph94%30.48 "Hg3 mi
6:20 PM50 °FFog.2 mph94%30.48 "Hg2 mi
5:50 PM50 °FFog.5 mph94%30.48 "Hg2 mi
5:20 PM50 °FFog.5 mph94%30.48 "Hg2 mi
4:50 PM50 °FFog.5 mph94%30.45 "Hg2 mi
4:20 PM50 °FFog.7 mph88%30.45 "Hg2 mi
3:50 PM50 °FFog.7 mph88%30.45 "Hg2 mi
3:20 PM50 °FFog.7 mph94%30.45 "Hg2 mi
2:50 PM50 °FFog.8 mph88%30.45 "Hg2 mi
2:20 PM48 °FLight rain. Fog.7 mph94%30.45 "Hg2 mi
1:50 PM48 °FLight rain. Fog.7 mph94%30.45 "Hg2 mi
1:20 PM48 °FFog.7 mph94%30.45 "Hg3 mi
12:50 PM48 °FLight rain. Fog.9 mph87%30.45 "Hg3 mi
12:20 PM48 °FOvercast.7 mph82%30.45 "Hg4 mi
11:50 AM48 °FPartly sunny.9 mph87%30.45 "Hg5 mi
11:20 AM48 °FBroken clouds.9 mph82%30.45 "Hg4 mi
10:50 AM48 °FPartly sunny.6 mph82%30.45 "Hg4 mi
10:20 AM48 °FFog.7 mph87%30.45 "Hg3 mi
9:50 AM46 °FFog.6 mph93%30.45 "Hg2 mi
9:20 AM45 °FFog.5 mph100%30.45 "Hg2 mi
8:50 AM41 °FFog.7 mph100%30.42 "Hg2 mi
8:20 AM41 °FFog.7 mph100%30.42 "Hg2 mi
7:50 AM41 °FFog.5 mph100%30.42 "Hg2 mi
7:20 AM41 °FFog.6 mph100%30.42 "Hg2 mi
6:50 AM41 °FFog.5 mph100%30.42 "Hg3 mi
6:20 AM41 °FFog.6 mph100%30.39 "Hg2 mi
5:50 AM41 °FFog.5 mph100%30.39 "Hg3 mi
5:20 AM43 °FFog.1 mph93%30.39 "Hg3 mi
4:50 AM43 °FPassing clouds.2 mph93%30.39 "Hg4 mi
4:20 AM43 °FFog.6 mph93%30.39 "Hg3 mi
Weather by CustomWeather, © 2016

See weather overviewHow to use our weather pages